This demonstration page uses our WeatherBlox Daily Observations layout. Learn more.

Left ArrowRight Arrow

36.19886, -115.1175

Hourly Observations for March 3, 2021

Temp ( °F °C ) Dew Point ( °F °C ) Humidity (%) Winds ( mph kmh ) Pressure ( in mb ) Visibility ( mi km ) Precip ( " mm )
12:53 am 00:53 Clear 47 8.3 12 -11.1 24 24 NW 5 7 29.89 1012 10 16.0934 0 0
1:53 am 01:53 Clear 45 7.2 12 -11.1 26 26 NNW 6 9 29.88 1012 10 16.0934 0 0
2:53 am 02:53 Clear 45 7.2 13 -10.6 27 27 WNW 7 11 29.86 1011 10 16.0934 0 0
3:53 am 03:53 Clear 42 5.6 13 -10.6 30 30 NNW 5 7 29.86 1011 10 16.0934 0 0
4:53 am 04:53 Clear 41 5 12 -11.1 30 30 NW 5 7 29.87 1011 10 16.0934 0 0
5:53 am 05:53 Clear 41 5 12 -11.1 30 30 WSW 3 6 29.86 1011 10 16.0934 0 0
6:53 am 06:53 Sunny 47 8.3 9 -12.8 21 21 SSW 5 7 29.86 1011 10 16.0934 0 0
7:53 am 07:53 Sunny 53 11.7 10 -12.2 18 18 S 5 7 29.87 1011 10 16.0934 0 0
8:53 am 08:53 Sunny 57 13.9 9 -12.8 15 15 S 5 7 29.86 1011 10 16.0934 0 0
9:53 am 09:53 Sunny 60 15.6 8 -13.3 12 12 ESE 7 11 29.85 1011 10 16.0934 0 0
10:53 am 10:53 Mostly Cloudy 64 17.8 7 -13.9 10 10 E 10 17 29.81 1010 10 16.0934 0 0
11:53 am 11:53 Mostly Cloudy 66 18.9 7 -13.9 10 10 E 7 11 29.78 1008 10 16.0934 0 0
12:53 pm 12:53 Mostly Cloudy 66 18.9 8 -13.3 10 10 VRB 3 6 29.75 1007 10 16.0934 0 0
1:53 pm 13:53 Partly Cloudy 67 19.4 8 -13.3 10 10 S 7 11 29.73 1007 10 16.0934 0 0
2:53 pm 14:53 Sunny 67 19.4 9 -12.8 10 10 SE 9 15 29.71 1006 10 16.0934 0 0
3:53 pm 15:53 Sunny 68 20 8 -13.3 9 9 SSW 15 24 29.69 1006 10 16.0934 0 0
4:53 pm 16:53 Sunny 65 18.3 11 -11.7 12 12 S 17 28 29.71 1006 10 16.0934 0 0
5:53 pm 17:53 Mostly Cloudy 61 16.1 19 -7.2 20 20 S 23 37 29.77 1008 10 16.0934 0 0
6:53 pm 18:53 Partly Cloudy 58 14.4 27 -2.8 31 31 SE 16 26 29.8 1009 10 16.0934 0 0
7:53 pm 19:53 Cloudy 57 13.9 25 -3.9 29 29 S 16 26 29.83 1010 10 16.0934 0 0
8:53 pm 20:53 Mostly Cloudy 56 13.3 24 -4.4 29 29 SSW 8 13 29.86 1011 10 16.0934 0 0
9:53 pm 21:53 Clear 54 12.2 28 -2.2 37 37 S 13 20 29.9 1012 10 16.0934 0 0
10:53 pm 22:53 Partly Cloudy 53 11.7 28 -2.2 38 38 SSW 10 17 29.92 1013 10 16.0934 0 0
11:53 pm 23:53 Clear 53 11.7 29 -1.7 40 40 SSW 13 20 29.93 1013 10 16.0934 0 0

Powered by AerisWeather